When you browse on this site, cookies collect data to enhance your experience and personalize the content and advertising you see.
Visit our Privacy Policy to learn more. By continuing to use the site, you agree to this use of cookies and data.

Meteo pe oră la Dziecmarow

Astăzi, 25 Septembrie, Vineri

Timp Temperatura Precipitaţii Vânt Presiune Umiditate
00:00 +17°C° 0 mm 2 m/s 731 mmHg 81%
01:00 +16°C° 0 mm 3 m/s 730 mmHg 82%
02:00 +16°C° 0 mm 3 m/s 729 mmHg 81%
03:00 +16°C° 0 mm 3 m/s 729 mmHg 81%
04:00 +16°C° 0 mm 3 m/s 728 mmHg 80%
05:00 +17°C° 0 mm 4 m/s 727 mmHg 78%
06:00 +17°C° 0 mm 4 m/s 727 mmHg 76%
07:00 +17°C° 0 mm 5 m/s 726 mmHg 74%
08:00 +19°C° 0 mm 6 m/s 726 mmHg 70%
09:00 +20°C° 0 mm 7 m/s 726 mmHg 66%
10:00 +21°C° 0 mm 8 m/s 726 mmHg 62%
11:00 +20°C° 0.8 mm 7 m/s 725 mmHg 69%
12:00 +19°C° 0.8 mm 6 m/s 725 mmHg 76%
13:00 +17°C° 0.8 mm 5 m/s 725 mmHg 83%
14:00 +17°C° 0.1 mm 4 m/s 725 mmHg 82%
15:00 +17°C° 0.1 mm 3 m/s 725 mmHg 81%
16:00 +16°C° 0.1 mm 2 m/s 725 mmHg 80%
17:00 +16°C° 0.1 mm 2 m/s 725 mmHg 83%
18:00 +15°C° 0.1 mm 1 m/s 724 mmHg 86%
19:00 +15°C° 0.1 mm 1 m/s 724 mmHg 89%
20:00 +15°C° 0.3 mm 1 m/s 724 mmHg 90%
21:00 +14°C° 0.3 mm 1 m/s 724 mmHg 91%
22:00 +14°C° 0.3 mm 2 m/s 724 mmHg 92%
23:00 +14°C° 0.8 mm 2 m/s 723 mmHg 93%

Mâine, 26 Septembrie, Sâmbătă

Timp Temperatura Precipitaţii Vânt Presiune Umiditate
00:00 +13°C° 0.8 mm 3 m/s 722 mmHg 93%
01:00 +13°C° 0.8 mm 3 m/s 722 mmHg 94%
02:00 +13°C° 1.6 mm 4 m/s 721 mmHg 94%
03:00 +13°C° 1.6 mm 4 m/s 719 mmHg 95%
04:00 +13°C° 1.6 mm 4 m/s 718 mmHg 95%
05:00 +14°C° 1.2 mm 4 m/s 718 mmHg 94%
06:00 +14°C° 1.2 mm 4 m/s 718 mmHg 92%
07:00 +15°C° 1.2 mm 5 m/s 718 mmHg 91%
08:00 +14°C° 0 mm 6 m/s 718 mmHg 86%
09:00 +12°C° 0 mm 7 m/s 719 mmHg 81%
10:00 +12°C° 0 mm 9 m/s 720 mmHg 76%
11:00 +12°C° 0 mm 9 m/s 721 mmHg 72%
12:00 +12°C° 0 mm 8 m/s 722 mmHg 69%
13:00 +12°C° 0 mm 8 m/s 722 mmHg 65%
14:00 +12°C° 0 mm 7 m/s 723 mmHg 65%
15:00 +11°C° 0 mm 6 m/s 724 mmHg 65%
16:00 +11°C° 0 mm 6 m/s 724 mmHg 65%
17:00 +10°C° 0 mm 5 m/s 725 mmHg 68%
18:00 +10°C° 0 mm 4 m/s 725 mmHg 70%
19:00 +9°C° 0 mm 3 m/s 725 mmHg 72%
20:00 +9°C° 0 mm 3 m/s 726 mmHg 73%
21:00 +9°C° 0 mm 2 m/s 726 mmHg 74%
22:00 +8°C° 0 mm 2 m/s 727 mmHg 76%
23:00 +8°C° 0 mm 2 m/s 727 mmHg 77%

Poimâine, 27 Septembrie, Duminică

Timp Temperatura Precipitaţii Vânt Presiune Umiditate
00:00 +7°C° 0 mm 2 m/s 726 mmHg 79%
01:00 +7°C° 0 mm 2 m/s 726 mmHg 81%
02:00 +7°C° 0 mm 2 m/s 726 mmHg 81%
03:00 +7°C° 0 mm 2 m/s 727 mmHg 81%
04:00 +7°C° 0 mm 2 m/s 727 mmHg 81%
05:00 +7°C° 0 mm 2 m/s 727 mmHg 79%
06:00 +7°C° 0 mm 2 m/s 727 mmHg 78%
07:00 +8°C° 0 mm 3 m/s 727 mmHg 76%
08:00 +9°C° 0 mm 3 m/s 727 mmHg 73%
09:00 +10°C° 0 mm 3 m/s 727 mmHg 69%
10:00 +11°C° 0 mm 3 m/s 728 mmHg 65%
11:00 +11°C° 0 mm 4 m/s 728 mmHg 63%
12:00 +12°C° 0 mm 5 m/s 728 mmHg 61%
13:00 +13°C° 0 mm 5 m/s 728 mmHg 59%
14:00 +12°C° 0 mm 5 m/s 728 mmHg 60%
15:00 +12°C° 0 mm 5 m/s 729 mmHg 61%
16:00 +12°C° 0 mm 5 m/s 729 mmHg 61%
17:00 +11°C° 0 mm 4 m/s 729 mmHg 65%
18:00 +11°C° 0 mm 4 m/s 730 mmHg 69%
19:00 +10°C° 0 mm 3 m/s 731 mmHg 72%
20:00 +10°C° 0 mm 3 m/s 731 mmHg 73%
21:00 +9°C° 0 mm 3 m/s 731 mmHg 74%
22:00 +9°C° 0 mm 3 m/s 732 mmHg 75%
23:00 +9°C° 0 mm 3 m/s 732 mmHg 75%

28 Septembrie, Luni

Timp Temperatura Precipitaţii Vânt Presiune Umiditate
00:00 +9°C° 0 mm 3 m/s 732 mmHg 75%
01:00 +8°C° 0 mm 4 m/s 732 mmHg 75%
02:00 +8°C° 0 mm 4 m/s 732 mmHg 75%
03:00 +8°C° 0 mm 4 m/s 732 mmHg 75%
04:00 +9°C° 0 mm 3 m/s 733 mmHg 75%
05:00 +8°C° 0 mm 4 m/s 733 mmHg 74%
06:00 +8°C° 0 mm 4 m/s 733 mmHg 73%
07:00 +10°C° 0 mm 4 m/s 733 mmHg 72%
08:00 +10°C° 0 mm 5 m/s 733 mmHg 68%
09:00 +11°C° 0 mm 6 m/s 733 mmHg 64%
10:00 +12°C° 0 mm 7 m/s 733 mmHg 60%
11:00 +12°C° 0 mm 7 m/s 733 mmHg 60%
12:00 +14°C° 0 mm 7 m/s 733 mmHg 59%
13:00 +14°C° 0 mm 7 m/s 733 mmHg 58%
14:00 +14°C° 0.1 mm 6 m/s 733 mmHg 61%
15:00 +13°C° 0.1 mm 6 m/s 732 mmHg 64%
16:00 +13°C° 0.1 mm 5 m/s 732 mmHg 68%
17:00 +12°C° 0.2 mm 5 m/s 732 mmHg 72%
18:00 +12°C° 0.2 mm 5 m/s 732 mmHg 77%
19:00 +10°C° 0.2 mm 5 m/s 732 mmHg 81%
20:00 +10°C° 0.3 mm 5 m/s 732 mmHg 83%
21:00 +10°C° 0.3 mm 5 m/s 732 mmHg 84%
22:00 +9°C° 0.3 mm 5 m/s 732 mmHg 86%
23:00 +10°C° 0.3 mm 6 m/s 731 mmHg 87%

29 Septembrie, Marţi

Timp Temperatura Precipitaţii Vânt Presiune Umiditate
00:00 +10°C° 0.3 mm 6 m/s 731 mmHg 87%
01:00 +10°C° 0.3 mm 6 m/s 731 mmHg 87%
02:00 +10°C° 0.4 mm 6 m/s 730 mmHg 88%
03:00 +10°C° 0.4 mm 5 m/s 730 mmHg 88%
04:00 +10°C° 0.4 mm 5 m/s 730 mmHg 89%
05:00 +11°C° 0.5 mm 4 m/s 730 mmHg 89%
06:00 +11°C° 0.5 mm 4 m/s 731 mmHg 89%
07:00 +11°C° 0.5 mm 3 m/s 731 mmHg 89%
08:00 +11°C° 0.1 mm 4 m/s 731 mmHg 88%
09:00 +12°C° 0.1 mm 5 m/s 732 mmHg 86%
10:00 +11°C° 0.1 mm 6 m/s 733 mmHg 84%
11:00 +11°C° 0.2 mm 6 m/s 733 mmHg 83%
12:00 +11°C° 0.2 mm 6 m/s 733 mmHg 83%
13:00 +11°C° 0.2 mm 6 m/s 734 mmHg 82%
14:00 +11°C° 0.1 mm 6 m/s 734 mmHg 81%
15:00 +11°C° 0.1 mm 6 m/s 735 mmHg 80%
16:00 +13°C° 0.1 mm 6 m/s 735 mmHg 79%
17:00 +12°C° 0 mm 5 m/s 735 mmHg 83%
18:00 +11°C° 0 mm 4 m/s 736 mmHg 86%
19:00 +10°C° 0 mm 4 m/s 736 mmHg 89%
20:00 +10°C° 0 mm 4 m/s 737 mmHg 90%
21:00 +10°C° 0 mm 4 m/s 737 mmHg 90%
22:00 +10°C° 0 mm 4 m/s 737 mmHg 91%
23:00 +9°C° 0 mm 3 m/s 737 mmHg 91%

30 Septembrie, Miercuri

Timp Temperatura Precipitaţii Vânt Presiune Umiditate
00:00 +9°C° 0 mm 3 m/s 737 mmHg 92%
01:00 +9°C° 0 mm 3 m/s 737 mmHg 92%
02:00 +9°C° 0 mm 3 m/s 737 mmHg 92%
03:00 +9°C° 0 mm 3 m/s 736 mmHg 91%
04:00 +9°C° 0 mm 2 m/s 736 mmHg 91%
05:00 +9°C° 0 mm 2 m/s 736 mmHg 89%
06:00 +9°C° 0 mm 2 m/s 736 mmHg 88%
07:00 +10°C° 0 mm 2 m/s 736 mmHg 86%
08:00 +11°C° 0 mm 3 m/s 736 mmHg 81%
09:00 +12°C° 0 mm 3 m/s 736 mmHg 75%
10:00 +13°C° 0 mm 4 m/s 735 mmHg 70%
11:00 +14°C° 0 mm 4 m/s 735 mmHg 65%
12:00 +15°C° 0 mm 4 m/s 734 mmHg 60%
13:00 +17°C° 0 mm 4 m/s 734 mmHg 56%
14:00 +17°C° 0 mm 4 m/s 733 mmHg 58%
15:00 +15°C° 0 mm 4 m/s 733 mmHg 60%
16:00 +15°C° 0 mm 4 m/s 732 mmHg 62%
17:00 +14°C° 0 mm 4 m/s 732 mmHg 67%
18:00 +13°C° 0 mm 4 m/s 732 mmHg 72%
19:00 +11°C° 0 mm 3 m/s 732 mmHg 78%
20:00 +11°C° 0 mm 4 m/s 732 mmHg 76%
21:00 +11°C° 0 mm 4 m/s 732 mmHg 75%
22:00 +11°C° 0 mm 4 m/s 731 mmHg 74%
23:00 +11°C° 0 mm 4 m/s 731 mmHg 75%
Arată mai mult